Location: Unspecified
(56.5167°N, 0.0000°E)
Time: 19:38:56
(UTC+01:00)

Resurs 1-4 Rocket - Pass Details

Date: 21 January 2018
Orbit: 801 x 813 km, 98.5° (Epoch: 22 February)

Event Time Altitude Azimuth Distance (km) Brightness Sun altitude
Rises 05:29:12 0° 12° (NNE) 3,335 5.6 -30.5°
Reaches altitude 10° 05:32:08 10° 356° (N) 2,403 4.6 -30.1°
Enters shadow 05:32:21 11° 354° (N) 2,345 4.5 -30.1°
